Location: ?????????
(54.7630°N, 39.4991°E)
Time: 11:32:59
(UTC+00:00)

Cosmos 2173 Rocket - Pass Details

Date: 14 April 2026
Orbit: 944 x 999 km, 83.0° (Epoch: 10 May)

Event Time Altitude Azimuth Distance (km) Brightness Sun altitude
Exits shadow 20:38:04 58° 146° (SSE) 1,099 3.9 -24.9°
Maximum altitude 20:39:06 68° 96° (E) 1,014 3.9 -25.0°
Drops below altitude 10° 20:45:10 10° 15° (NNE) 2,680 7.2 -25.1°
Sets 20:47:41 0° 13° (NNE) 3,633 8.1 -25.2°
